Frisco, NC

12:09 AM EDT on September 29, 2016 (GMT -0400)
Mitchell

Weather History for KHSE - November, 2011

Change the Weather History Date:

Monday, November 28, 2011

  Actual Average Record
Temperature  
Mean Temperature 70 °F 54 °F  
Max Temperature 74 °F 61 °F 80 °F (1990)
Min Temperature 65 °F 48 °F 27 °F (1903)
Degree Days  
Heating Degree Days 0 11  
Month to date heating degree days 178 219  
Since 1 July heating degree days 237 294  
Cooling Degree Days 5 0  
Month to date cooling degree days 9 22  
Year to date cooling degree days 2378 1712  
Growing Degree Days 18 (Base 50)    
Moisture  
Dew Point 61 °F    
Average Humidity 70    
Maximum Humidity 81    
Minimum Humidity 59    
Precipitation  
Precipitation 0.06 in 0.15 in 2.01 in (2004)
Month to date precipitation 5.64 4.65  
Year to date precipitation 59.71 53.47  
Snow  
Snow 0.00 in - - ()
Month to date snowfall 0.0  
Since 1 July snowfall 0.0  
Snow Depth 0.00 in    
Sea Level Pressure  
Sea Level Pressure 30.09 in    
Wind  
Wind Speed 13 mph (SSE)    
Max Wind Speed 22 mph    
Max Gust Speed 30 mph    
Visibility 9 miles    
Events Rain    
T = Trace of Precipitation, MM = Missing Value Source: NWS Daily Summary

Daily Weather History Graph

Daily Weather History Graph

Search for Another Location

Airport or City:

Trip Planner

Search our weather history database for the weather conditions in past years. The results will help you decide how hot, cold, wet, or windy it might be!

Date:

Astronomy

Nov. 28, 2011 Rise Set
Actual Time 6:49 AM EST 4:50 PM EST
Civil Twilight 6:22 AM EST 5:18 PM EST
Nautical Twilight 5:50 AM EST 5:49 PM EST
Astronomical Twilight 5:20 AM EST 6:20 PM EST
Moon 9:58 AM EST (11/28) 8:33 PM EST (11/28)
Length of Visible Light 10h 56m
Length of Day
10h 01m
Waxing Crescent, 15% of the Moon is Illuminated
Nov 28
Waxing Crescent
Dec 2
First Quarter
Dec 10
Full
Dec 17
Last Quarter
Dec 24
New

Hourly Weather History & Observations

Time (EST) Temp. Dew Point Humidity Pressure Visibility Wind Dir Wind Speed Gust Speed Precip Events Conditions
12:51 AM 68.0 °F 57.0 °F 68% 30.14 in 10.0 mi SSE 9.2 mph - N/A   Overcast
1:51 AM 68.0 °F 57.9 °F 70% 30.14 in 10.0 mi South 9.2 mph - N/A   Overcast
2:51 AM 68.0 °F 59.0 °F 73% 30.13 in 10.0 mi South 4.6 mph - N/A   Overcast
3:51 AM 68.0 °F 57.0 °F 68% 30.12 in 10.0 mi South 9.2 mph - N/A   Overcast
4:51 AM 69.1 °F 57.9 °F 68% 30.11 in 10.0 mi SSE 10.4 mph - N/A   Overcast
5:51 AM 69.1 °F 57.0 °F 65% 30.12 in 10.0 mi South 13.8 mph - N/A   Overcast
6:51 AM 69.1 °F 59.0 °F 70% 30.13 in 10.0 mi SSE 10.4 mph - N/A   Overcast
7:51 AM 69.1 °F 57.9 °F 68% 30.13 in 10.0 mi SSE 8.1 mph - N/A   Overcast
8:51 AM 70.0 °F 62.1 °F 76% 30.14 in 10.0 mi SE 16.1 mph - N/A   Scattered Clouds
9:51 AM 68.0 °F 63.0 °F 84% 30.15 in 3.0 mi South 18.4 mph 26.5 mph 0.01 in Rain Light Rain
9:58 AM 66.2 °F 62.6 °F 88% 30.15 in 2.0 mi South 20.7 mph 28.8 mph 0.01 in Rain Rain
10:05 AM 64.4 °F 60.8 °F 88% 30.15 in 1.5 mi South 13.8 mph 28.8 mph 0.04 in Rain Rain
10:10 AM 66.2 °F 62.6 °F 88% 30.14 in 3.0 mi South 15.0 mph - 0.05 in Rain Light Rain
10:17 AM 66.2 °F 62.6 °F 88% 30.14 in 9.0 mi SSE 13.8 mph - 0.05 in   Overcast
10:51 AM 69.1 °F 64.9 °F 87% 30.12 in 9.0 mi ESE 8.1 mph - 0.05 in   Overcast
11:51 AM 72.0 °F 64.0 °F 76% 30.10 in 10.0 mi SSE 10.4 mph - N/A   Scattered Clouds
12:51 PM 69.1 °F 63.0 °F 81% 30.08 in 8.0 mi SSE 10.4 mph - 0.00 in   Overcast
1:51 PM 72.0 °F 61.0 °F 68% 30.06 in 10.0 mi South 12.7 mph - N/A   Mostly Cloudy
2:51 PM 73.0 °F 62.1 °F 68% 30.05 in 10.0 mi South 10.4 mph - N/A   Clear
3:51 PM 72.0 °F 60.1 °F 66% 30.04 in 10.0 mi SSE 9.2 mph - N/A   Clear
4:51 PM 69.1 °F 61.0 °F 75% 30.04 in 10.0 mi SSE 11.5 mph - N/A   Clear
5:51 PM 69.1 °F 62.1 °F 78% 30.05 in 10.0 mi SE 18.4 mph - N/A   Mostly Cloudy
6:51 PM 68.0 °F 62.1 °F 81% 30.04 in 10.0 mi SE 16.1 mph - N/A   Clear
7:51 PM 68.0 °F 63.0 °F 84% 30.02 in 10.0 mi SE 16.1 mph 21.9 mph N/A   Clear
8:51 PM 69.1 °F 63.0 °F 81% 30.01 in 10.0 mi SE 15.0 mph - N/A   Mostly Cloudy
9:51 PM 69.1 °F 62.1 °F 78% 30.00 in 10.0 mi SSE 17.3 mph - N/A   Mostly Cloudy
10:51 PM 69.1 °F 60.1 °F 73% 29.99 in 10.0 mi SSE 18.4 mph - N/A   Clear
11:51 PM 69.1 °F 57.0 °F 65% 29.97 in 10.0 mi SSE 20.7 mph 29.9 mph N/A   Clear